Time,TemperatureF,DewpointF,PressureIn,WindDirection,WindDirectionDegrees,WindSpeedMPH,WindSpeedGustMPH,Humidity,HourlyPrecipIn,Conditions,Clouds,dailyrainin,SoftwareType,DateUTC
2013-10-02 00:04:00,53.5,52.0,29.85,WNW,300,0.0,0.0,96,0.00,,,0.00,weatherlink.com 1.10,2013-10-02 04:04:00,
2013-10-02 00:19:00,53.3,53.0,29.85,WNW,300,0.0,0.0,97,0.00,,,0.00,weatherlink.com 1.10,2013-10-02 04:19:00,
2013-10-02 00:34:00,53.2,52.0,29.84,WNW,300,0.0,0.0,97,0.00,,,0.00,weatherlink.com 1.10,2013-10-02 04:34:00,
2013-10-02 00:49:00,53.2,52.0,29.85,WNW,300,0.0,0.0,97,0.00,,,0.00,weatherlink.com 1.10,2013-10-02 04:49:00,
2013-10-02 01:04:00,53.5,53.0,29.85,WNW,300,0.0,0.0,98,0.00,,,0.00,weatherlink.com 1.10,2013-10-02 05:04:00,
2013-10-02 01:19:00,54.3,54.0,29.85,WNW,300,0.0,0.0,98,0.00,,,0.00,weatherlink.com 1.10,2013-10-02 05:19:00,
2013-10-02 01:34:00,54.1,54.0,29.85,WNW,300,0.0,0.0,98,0.00,,,0.00,weatherlink.com 1.10,2013-10-02 05:34:00,
2013-10-02 01:49:00,54.0,53.0,29.85,WNW,300,0.0,0.0,97,0.00,,,0.00,weatherlink.com 1.10,2013-10-02 05:49:00,
2013-10-02 02:04:00,53.7,53.0,29.85,WNW,300,0.0,0.0,97,0.00,,,0.00,weatherlink.com 1.10,2013-10-02 06:04:00,
2013-10-02 02:19:00,53.5,53.0,29.85,WNW,300,0.0,0.0,97,0.00,,,0.00,weatherlink.com 1.10,2013-10-02 06:19:00,
2013-10-02 02:34:00,52.9,52.0,29.84,WNW,300,0.0,0.0,97,0.00,,,0.00,weatherlink.com 1.10,2013-10-02 06:34:00,
2013-10-02 02:49:00,52.9,52.0,29.84,WNW,300,0.0,0.0,98,0.00,,,0.00,weatherlink.com 1.10,2013-10-02 06:49:00,
2013-10-02 03:04:00,53.9,54.0,29.84,WNW,300,0.0,0.0,99,0.00,,,0.00,weatherlink.com 1.10,2013-10-02 07:04:00,
2013-10-02 03:19:00,53.7,53.0,29.84,WNW,300,0.0,0.0,98,0.00,,,0.00,weatherlink.com 1.10,2013-10-02 07:19:00,
2013-10-02 03:34:00,52.7,52.0,29.84,WNW,300,0.0,0.0,97,0.00,,,0.00,weatherlink.com 1.10,2013-10-02 07:34:00,
2013-10-02 03:49:00,52.0,51.0,29.84,WNW,300,0.0,0.0,97,0.00,,,0.00,weatherlink.com 1.10,2013-10-02 07:49:00,
2013-10-02 04:04:00,51.3,51.0,29.84,WNW,300,0.0,0.0,97,0.00,,,0.00,weatherlink.com 1.10,2013-10-02 08:04:00,
2013-10-02 04:19:00,51.2,51.0,29.84,WNW,300,0.0,0.0,98,0.00,,,0.00,weatherlink.com 1.10,2013-10-02 08:19:00,
2013-10-02 04:34:00,50.8,50.0,29.84,WNW,300,0.0,0.0,98,0.00,,,0.00,weatherlink.com 1.10,2013-10-02 08:34:00,
2013-10-02 04:49:00,50.6,50.0,29.84,WNW,300,0.0,0.0,98,0.00,,,0.00,weatherlink.com 1.10,2013-10-02 08:49:00,
2013-10-02 05:04:00,50.7,51.0,29.84,WNW,300,0.0,0.0,99,0.00,,,0.00,weatherlink.com 1.10,2013-10-02 09:04:00,
2013-10-02 05:19:00,50.9,51.0,29.84,WNW,300,0.0,0.0,99,0.00,,,0.00,weatherlink.com 1.10,2013-10-02 09:19:00,
2013-10-02 05:34:00,51.0,51.0,29.83,WNW,300,0.0,0.0,99,0.00,,,0.00,weatherlink.com 1.10,2013-10-02 09:34:00,
2013-10-02 05:49:00,50.6,50.0,29.83,WNW,300,0.0,0.0,98,0.00,,,0.00,weatherlink.com 1.10,2013-10-02 09:49:00,
2013-10-02 06:04:00,50.2,50.0,29.83,WNW,300,0.0,0.0,98,0.00,,,0.00,weatherlink.com 1.10,2013-10-02 10:04:00,
2013-10-02 06:19:00,49.9,49.0,29.83,WNW,300,0.0,0.0,98,0.00,,,0.00,weatherlink.com 1.10,2013-10-02 10:19:00,
2013-10-02 06:34:00,49.7,50.0,29.83,WNW,300,0.0,0.0,99,0.00,,,0.00,weatherlink.com 1.10,2013-10-02 10:34:00,
2013-10-02 06:49:00,49.4,49.0,29.83,WNW,300,0.0,0.0,99,0.00,,,0.00,weatherlink.com 1.10,2013-10-02 10:49:00,
2013-10-02 07:04:00,49.1,49.0,29.84,WNW,300,0.0,0.0,99,0.00,,,0.00,weatherlink.com 1.10,2013-10-02 11:04:00,
2013-10-02 07:19:00,48.8,49.0,29.84,WNW,300,0.0,0.0,99,0.00,,,0.00,weatherlink.com 1.10,2013-10-02 11:19:00,
2013-10-02 07:34:00,48.8,49.0,29.84,WNW,300,0.0,0.0,99,0.00,,,0.00,weatherlink.com 1.10,2013-10-02 11:34:00,
2013-10-02 07:49:00,49.0,49.0,29.84,WNW,300,0.0,0.0,99,0.00,,,0.00,weatherlink.com 1.10,2013-10-02 11:49:00,
2013-10-02 08:04:00,49.5,49.0,29.84,WNW,300,0.0,0.0,99,0.00,,,0.00,weatherlink.com 1.10,2013-10-02 12:04:00,
2013-10-02 08:19:00,50.0,50.0,29.84,WNW,300,0.0,0.0,100,0.00,,,0.00,weatherlink.com 1.10,2013-10-02 12:19:00,
2013-10-02 08:34:00,50.7,51.0,29.84,WNW,300,0.0,0.0,100,0.00,,,0.00,weatherlink.com 1.10,2013-10-02 12:34:00,
2013-10-02 08:49:00,51.1,51.0,29.84,WNW,300,0.0,0.0,100,0.00,,,0.00,weatherlink.com 1.10,2013-10-02 12:49:00,
2013-10-02 09:04:00,51.3,51.0,29.84,WNW,300,0.0,0.0,100,0.00,,,0.00,weatherlink.com 1.10,2013-10-02 13:04:00,
2013-10-02 09:19:00,51.7,52.0,29.84,WNW,300,0.0,0.0,100,0.00,,,0.00,weatherlink.com 1.10,2013-10-02 13:19:00,
2013-10-02 09:34:00,52.4,52.0,29.83,WNW,300,0.0,0.0,100,0.00,,,0.00,weatherlink.com 1.10,2013-10-02 13:34:00,
2013-10-02 09:49:00,53.3,53.0,29.83,WNW,300,0.0,0.0,100,0.00,,,0.00,weatherlink.com 1.10,2013-10-02 13:49:00,
2013-10-02 10:04:00,54.7,55.0,29.84,WNW,300,0.0,0.0,100,0.00,,,0.00,weatherlink.com 1.10,2013-10-02 14:04:00,
2013-10-02 10:19:00,56.6,57.0,29.84,WSW,253,0.0,3.0,100,0.00,,,0.00,weatherlink.com 1.10,2013-10-02 14:19:00,
2013-10-02 10:35:00,58.3,57.0,29.84,SSW,196,0.0,1.0,95,0.00,,,0.00,weatherlink.com 1.10,2013-10-02 14:35:00,
2013-10-02 10:50:00,59.1,57.0,29.84,West,271,0.0,0.0,93,0.00,,,0.00,weatherlink.com 1.10,2013-10-02 14:50:00,
2013-10-02 11:05:00,59.9,57.0,29.83,West,271,0.0,1.0,91,0.00,,,0.00,weatherlink.com 1.10,2013-10-02 15:05:00,
2013-10-02 11:20:00,60.7,58.0,29.83,SSW,207,0.0,1.0,89,0.00,,,0.00,weatherlink.com 1.10,2013-10-02 15:20:00,
2013-10-02 11:35:00,61.4,58.0,29.83,WSW,251,0.0,2.0,88,0.00,,,0.00,weatherlink.com 1.10,2013-10-02 15:35:00,
2013-10-02 11:50:00,62.0,58.0,29.83,WSW,251,0.0,1.0,87,0.00,,,0.00,weatherlink.com 1.10,2013-10-02 15:50:00,
2013-10-02 12:05:00,62.3,59.0,29.83,WSW,251,0.0,1.0,88,0.00,,,0.00,weatherlink.com 1.10,2013-10-02 16:05:00,
2013-10-02 12:20:00,63.2,59.0,29.83,West,275,0.0,2.0,86,0.00,,,0.00,weatherlink.com 1.10,2013-10-02 16:20:00,
2013-10-02 12:35:00,65.8,60.0,29.82,NW,315,0.0,4.0,82,0.00,,,0.00,weatherlink.com 1.10,2013-10-02 16:35:00,
2013-10-02 12:50:00,67.0,60.0,29.82,SSE,159,0.0,3.0,78,0.00,,,0.00,weatherlink.com 1.10,2013-10-02 16:50:00,
2013-10-02 13:05:00,67.7,61.0,29.81,SE,137,0.0,2.0,78,0.00,,,0.00,weatherlink.com 1.10,2013-10-02 17:05:00,
2013-10-02 13:20:00,68.4,61.0,29.80,NE,38,1.0,2.0,77,0.00,,,0.00,weatherlink.com 1.10,2013-10-02 17:20:00,
2013-10-02 13:35:00,68.6,60.0,29.80,SSW,201,2.0,4.0,75,0.00,,,0.00,weatherlink.com 1.10,2013-10-02 17:35:00,
2013-10-02 13:50:00,70.3,60.0,29.79,NW,315,1.0,4.0,71,0.00,,,0.00,weatherlink.com 1.10,2013-10-02 17:50:00,
2013-10-02 14:05:00,70.6,60.0,29.79,NW,321,0.0,4.0,70,0.00,,,0.00,weatherlink.com 1.10,2013-10-02 18:05:00,
2013-10-02 14:20:00,70.7,60.0,29.79,SSW,205,0.0,3.0,70,0.00,,,0.00,weatherlink.com 1.10,2013-10-02 18:20:00,
2013-10-02 14:35:00,71.9,60.0,29.78,SSE,148,0.0,4.0,66,0.00,,,0.00,weatherlink.com 1.10,2013-10-02 18:35:00,
2013-10-02 14:50:00,72.0,60.0,29.78,NW,323,0.0,3.0,65,0.00,,,0.00,weatherlink.com 1.10,2013-10-02 18:50:00,
2013-10-02 15:05:00,70.8,60.0,29.78,NW,323,1.0,1.0,69,0.00,,,0.00,weatherlink.com 1.10,2013-10-02 19:05:00,
2013-10-02 15:20:00,70.3,59.0,29.78,SSE,158,0.0,2.0,68,0.00,,,0.00,weatherlink.com 1.10,2013-10-02 19:20:00,
2013-10-02 15:35:00,71.2,59.0,29.78,WSW,241,0.0,3.0,66,0.00,,,0.00,weatherlink.com 1.10,2013-10-02 19:35:00,
2013-10-02 15:50:00,71.3,58.0,29.78,East,97,1.0,5.0,64,0.00,,,0.00,weatherlink.com 1.10,2013-10-02 19:50:00,
2013-10-02 16:05:00,71.2,57.0,29.78,NNE,13,0.0,4.0,62,0.00,,,0.00,weatherlink.com 1.10,2013-10-02 20:05:00,
2013-10-02 16:21:00,72.3,58.0,29.79,WNW,297,3.0,9.0,61,0.00,,,0.00,weatherlink.com 1.10,2013-10-02 20:21:00,
2013-10-02 16:35:00,72.1,58.0,29.78,West,277,0.0,4.0,62,0.00,,,0.00,weatherlink.com 1.10,2013-10-02 20:35:00,
2013-10-02 16:50:00,71.7,57.0,29.78,SW,225,0.0,2.0,61,0.00,,,0.00,weatherlink.com 1.10,2013-10-02 20:50:00,
2013-10-02 17:06:00,71.5,58.0,29.79,SE,134,0.0,6.0,62,0.00,,,0.00,weatherlink.com 1.10,2013-10-02 21:06:00,
2013-10-02 17:21:00,71.4,57.0,29.79,NNE,16,0.0,2.0,60,0.00,,,0.00,weatherlink.com 1.10,2013-10-02 21:21:00,
2013-10-02 17:36:00,70.7,57.0,29.79,ESE,109,0.0,5.0,62,0.00,,,0.00,weatherlink.com 1.10,2013-10-02 21:36:00,
2013-10-02 17:51:00,70.0,57.0,29.80,ESE,109,0.0,1.0,64,0.00,,,0.00,weatherlink.com 1.10,2013-10-02 21:51:00,
2013-10-02 18:06:00,69.2,58.0,29.81,ESE,109,0.0,0.0,67,0.00,,,0.00,weatherlink.com 1.10,2013-10-02 22:06:00,
2013-10-02 18:21:00,67.7,57.0,29.81,ESE,109,0.0,1.0,68,0.00,,,0.00,weatherlink.com 1.10,2013-10-02 22:21:00,
2013-10-02 18:36:00,66.4,56.0,29.82,ESE,109,0.0,1.0,70,0.00,,,0.00,weatherlink.com 1.10,2013-10-02 22:36:00,
2013-10-02 18:51:00,64.8,56.0,29.82,ESE,109,0.0,1.0,73,0.00,,,0.00,weatherlink.com 1.10,2013-10-02 22:51:00,
2013-10-02 19:06:00,66.1,53.0,29.83,North,5,1.0,4.0,63,0.00,,,0.00,weatherlink.com 1.10,2013-10-02 23:06:00,
2013-10-02 19:21:00,66.8,51.0,29.83,NW,325,0.0,2.0,58,0.00,,,0.00,weatherlink.com 1.10,2013-10-02 23:21:00,
2013-10-02 19:36:00,67.0,51.0,29.83,North,360,0.0,5.0,56,0.00,,,0.00,weatherlink.com 1.10,2013-10-02 23:36:00,
2013-10-02 19:51:00,66.8,50.0,29.84,ESE,107,0.0,1.0,55,0.00,,,0.00,weatherlink.com 1.10,2013-10-02 23:51:00,
2013-10-02 20:06:00,66.4,50.0,29.85,ESE,113,0.0,4.0,56,0.00,,,0.00,weatherlink.com 1.10,2013-10-03 00:06:00,
2013-10-02 20:21:00,65.6,50.0,29.85,SSE,153,1.0,1.0,58,0.00,,,0.00,weatherlink.com 1.10,2013-10-03 00:21:00,
2013-10-02 20:36:00,63.4,53.0,29.86,SSE,153,0.0,0.0,69,0.00,,,0.00,weatherlink.com 1.10,2013-10-03 00:36:00,
2013-10-02 20:51:00,60.3,52.0,29.86,SSE,153,0.0,0.0,75,0.00,,,0.00,weatherlink.com 1.10,2013-10-03 00:51:00,
2013-10-02 21:06:00,58.5,52.0,29.86,SSE,153,0.0,0.0,78,0.00,,,0.00,weatherlink.com 1.10,2013-10-03 01:06:00,
2013-10-02 21:21:00,57.5,51.0,29.86,SSE,153,0.0,0.0,79,0.00,,,0.00,weatherlink.com 1.10,2013-10-03 01:21:00,
2013-10-02 21:36:00,56.8,51.0,29.86,SSE,153,0.0,1.0,81,0.00,,,0.00,weatherlink.com 1.10,2013-10-03 01:36:00,
2013-10-02 21:51:00,56.7,51.0,29.87,SSE,153,0.0,1.0,81,0.00,,,0.00,weatherlink.com 1.10,2013-10-03 01:51:00,
2013-10-02 22:06:00,56.2,50.0,29.88,SSE,153,0.0,1.0,81,0.00,,,0.00,weatherlink.com 1.10,2013-10-03 02:06:00,
2013-10-02 22:21:00,56.5,50.0,29.89,SSE,153,0.0,1.0,80,0.00,,,0.00,weatherlink.com 1.10,2013-10-03 02:21:00,
2013-10-02 22:36:00,56.4,50.0,29.89,SSE,153,0.0,1.0,80,0.00,,,0.00,weatherlink.com 1.10,2013-10-03 02:36:00,
2013-10-02 22:51:00,55.8,50.0,29.89,SSE,153,0.0,0.0,81,0.00,,,0.00,weatherlink.com 1.10,2013-10-03 02:51:00,
2013-10-02 23:06:00,57.3,50.0,29.90,SSE,153,0.0,0.0,77,0.00,,,0.00,weatherlink.com 1.10,2013-10-03 03:06:00,
2013-10-02 23:21:00,57.6,51.0,29.91,SSE,153,0.0,0.0,79,0.00,,,0.00,weatherlink.com 1.10,2013-10-03 03:21:00,
2013-10-02 23:36:00,55.8,50.0,29.91,West,278,0.0,2.0,81,0.00,,,0.00,weatherlink.com 1.10,2013-10-03 03:36:00,
2013-10-02 23:51:00,55.0,50.0,29.91,West,278,0.0,1.0,84,0.00,,,0.00,weatherlink.com 1.10,2013-10-03 03:51:00,